Theta_e
311 313 313 314 316 318 319 320 320 322 324 325 328 329 328 328 328 328 329 328 327 327 326 325 324 321 320 321 323 325 325 325 327 326 325 325 325 325 324 324 325 326 326 326 326 325 325 326 326 325 325 325
308 311 312 313 314 317 318 319 320 321 323 324 326 328 327 328 328 326 325 325 324 324 323 323 322 320 320 320 322 325 324 324 326 326 325 324 324 324 323 322 323 325 325 324 324 324 324 323 323 322 322 323
306 308 310 311 312 314 316 317 319 320 322 322 324 325 325 324 322 322 321 321 321 321 320 320 321 320 319 321 323 324 324 324 326 326 324 323 323 323 322 322 323 324 323 323 323 323 322 320 320 320 319 320
304 306 308 309 310 312 314 316 317 319 320 320 321 322 322 321 320 320 319 319 319 320 319 319 319 319 318 319 321 323 324 325 326 324 323 322 322 321 321 321 322 322 321 322 323 322 320 319 319 319 318 318
303 305 306 307 308 309 311 313 315 316 317 317 317 318 320 321 321 321 320 320 319 319 319 318 318 318 317 317 319 322 324 325 325 324 322 321 321 320 320 319 320 319 320 321 322 321 319 319 318 318 318 318
302 303 304 304 306 307 308 309 312 314 314 315 315 316 318 319 320 321 321 320 319 319 319 318 318 318 317 317 319 322 324 324 324 323 321 321 320 319 319 317 317 317 318 320 320 319 319 318 317 317 317 317
300 301 302 303 304 305 306 307 308 310 312 312 313 314 315 317 318 319 321 321 320 320 319 318 318 317 317 317 319 322 323 322 322 321 320 320 320 319 317 315 316 316 317 319 318 318 317 317 316 316 316 316
297 298 300 301 302 303 304 304 306 307 308 309 310 311 312 314 316 317 319 320 320 319 319 319 319 317 316 317 320 322 322 321 321 321 320 319 319 318 315 312 314 316 316 317 317 316 316 315 315 315 315 316
294 295 297 299 300 301 301 302 303 304 305 306 307 308 309 311 313 315 316 317 318 317 317 318 320 318 315 317 320 321 320 320 320 320 319 319 318 317 314 311 312 315 316 316 316 315 315 315 315 315 315 316
291 292 294 296 297 298 299 300 301 301 302 303 304 305 306 308 309 311 313 314 315 316 316 318 320 318 314 315 319 320 319 319 319 319 318 318 318 317 315 313 313 314 315 315 315 315 314 314 315 315 314 315
289 290 290 291 294 295 296 298 298 299 300 301 301 302 304 305 306 307 309 311 312 313 315 317 319 319 316 315 318 319 318 318 318 318 317 317 317 316 315 314 314 314 314 314 315 315 314 314 315 315 315 315
288 288 288 288 289 291 293 295 296 297 298 299 299 300 301 302 303 304 305 307 309 310 312 314 316 318 318 317 317 319 318 317 318 318 317 316 315 315 315 315 314 313 313 313 314 314 314 314 315 315 315 316
287 287 286 286 286 287 288 290 292 294 296 297 298 298 299 300 301 302 303 304 305 307 309 311 313 316 318 317 316 317 317 316 316 317 317 316 315 315 315 314 313 312 312 312 313 314 314 315 315 315 316 316
285 286 286 286 285 285 285 286 288 290 292 294 295 297 298 298 298 299 300 301 302 304 306 308 309 312 315 314 313 312 313 314 313 314 315 315 315 315 314 314 313 312 311 311 312 313 314 314 315 315 315 316
284 284 285 285 284 284 284 284 285 286 288 290 292 294 296 296 297 297 298 299 300 301 303 305 305 307 310 312 313 312 311 313 313 313 314 315 315 315 314 314 313 311 310 310 310 311 312 312 313 314 314 315
282 283 284 284 283 283 283 283 283 284 285 286 288 290 293 294 295 296 297 297 298 299 300 302 302 303 305 307 310 312 312 313 314 313 313 314 314 314 314 314 313 312 310 309 309 310 310 310 311 311 313 314
282 282 283 283 283 282 282 282 283 283 283 283 285 287 289 291 293 294 295 296 296 297 298 299 300 301 302 303 305 308 311 312 313 314 314 313 313 313 313 313 312 311 310 309 309 309 309 309 309 310 311 312
281 281 281 282 282 282 282 282 282 282 282 282 282 283 286 288 290 292 293 294 295 296 297 297 298 299 299 301 301 303 306 308 309 312 313 313 311 311 311 311 312 311 310 308 308 308 308 308 309 309 310 310
282 281 281 281 281 281 281 281 281 281 281 281 281 282 283 285 287 289 291 292 293 294 295 296 296 297 298 298 299 300 302 303 304 306 307 309 309 310 310 310 310 310 309 308 306 306 307 307 308 308 308 309
282 282 281 281 281 280 280 280 280 280 280 280 281 281 281 282 283 286 289 291 292 293 294 295 295 296 296 297 298 298 299 300 300 301 302 303 304 305 307 308 309 309 307 306 304 304 305 306 306 307 307 307
282 281 281 281 281 280 280 280 280 280 280 280 280 280 280 281 281 282 285 288 290 291 292 293 294 294 295 296 296 296 297 297 297 298 299 300 299 300 301 303 305 306 305 304 303 302 302 303 304 305 306 306
282 282 282 281 281 281 280 280 279 279 279 279 279 279 279 280 280 281 282 284 286 289 290 291 292 293 294 295 295 295 295 296 296 296 296 297 297 297 296 296 297 298 299 300 301 301 300 301 302 303 303 304
282 282 282 282 282 281 281 280 279 279 279 279 278 278 279 279 279 280 280 281 283 285 287 289 291 291 292 293 294 294 294 294 295 295 295 295 295 295 295 294 293 293 293 294 296 298 299 299 298 299 301 302
282 282 282 282 282 281 281 280 280 279 279 278 278 278 278 278 278 279 279 280 280 281 283 286 288 290 291 291 292 293 293 293 293 293 293 294 294 294 294 294 293 292 292 291 292 293 294 296 295 295 296 297
282 282 282 282 282 281 281 281 280 280 279 278 278 278 278 278 278 278 278 279 279 280 280 282 285 287 289 290 290 290 290 291 292 292 292 292 293 293 293 293 293 292 291 290 291 292 291 291 292 292 292 292
282 282 281 282 282 281 281 281 280 280 279 279 278 278 277 277 278 278 278 278 278 278 279 280 281 283 286 287 288 288 288 289 291 291 291 291 291 292 292 292 292 292 291 291 292 293 293 293 292 291 290 290
281 281 281 281 281 281 281 281 280 280 279 279 279 278 277 277 277 277 277 277 277 278 278 278 279 280 282 284 285 286 287 288 288 289 289 289 289 290 291 291 291 292 292 291 291 292 294 296 297 296 293 291
280 281 281 281 281 281 281 281 280 280 280 280 279 279 278 277 277 277 277 277 277 277 277 277 278 278 279 280 282 283 285 286 286 286 287 287 287 288 289 289 290 291 291 291 291 293 294 295 297 301 299 295
280 281 281 281 282 282 281 281 281 281 280 280 279 279 278 277 277 277 277 277 277 277 277 277 277 277 278 278 279 280 281 283 284 285 285 285 285 285 286 288 289 290 290 290 291 291 293 293 295 298 298 296
280 281 281 281 281 281 282 282 281 281 280 280 280 279 278 278 277 277 277 277 276 276 276 276 276 277 277 277 277 278 279 280 281 283 284 285 284 284 284 286 288 288 289 289 290 290 291 292 292 292 293 294
281 281 281 281 281 281 281 281 281 280 280 280 280 279 278 278 278 277 277 277 276 276 276 276 276 276 276 276 276 277 277 278 279 280 282 283 284 284 283 284 285 287 287 288 289 290 289 290 289 289 290 292
Wind_Speed
30 29 28 27 27 26 25 26 25 25 27 31 29 20 13 9 6 7 8 8 7 6 4 3 4 4 4 3 3 6 5 6 8 10 11 11 11 12 11 10 11 12 10 13 16 14 14 17 18 17 16 15
33 32 30 28 27 26 24 25 23 22 24 26 24 18 10 5 7 9 9 9 8 6 2 2 3 3 5 4 3 7 6 6 10 10 11 11 10 10 12 11 12 12 8 10 14 14 13 13 13 14 14 14
35 34 32 30 28 27 25 24 23 19 21 22 20 18 15 12 12 11 9 8 5 3 1 4 5 4 5 5 4 7 7 8 10 11 12 12 12 11 10 11 13 12 8 10 15 15 13 10 11 12 12 12
37 36 33 32 30 28 26 25 23 18 18 20 18 15 12 10 9 7 4 2 2 1 2 4 5 6 7 6 7 8 7 10 11 11 12 13 14 13 11 11 11 9 8 12 16 16 14 12 13 12 11 12
38 37 36 35 34 31 29 27 24 20 19 20 20 17 10 7 4 1 1 3 2 4 5 4 5 6 8 8 8 9 10 13 15 13 13 14 13 12 11 9 8 8 10 15 17 17 16 15 15 13 12 13
39 39 38 38 37 35 33 30 28 24 22 22 22 21 15 10 6 5 5 6 6 8 9 7 8 9 8 8 9 10 12 13 16 17 13 13 11 9 7 5 6 8 13 18 19 17 16 16 16 14 13 13
38 39 38 38 38 37 36 33 32 28 25 25 24 23 19 13 10 8 8 9 9 10 13 13 12 12 11 9 9 10 12 12 12 14 12 11 10 8 6 5 7 10 14 19 20 18 18 17 15 14 14 14
35 36 37 38 38 37 38 36 34 32 29 28 26 26 23 17 13 11 10 11 12 12 14 16 15 14 12 10 9 10 11 11 10 10 11 11 11 10 9 7 9 12 16 20 21 20 20 18 16 14 15 15
33 35 36 38 38 37 38 37 36 35 33 31 29 27 26 21 15 13 12 12 15 17 18 18 18 15 12 11 11 10 9 11 13 12 12 11 11 11 10 10 10 12 17 20 21 21 20 18 16 16 16 17
29 33 34 36 38 37 37 37 36 36 36 34 33 30 28 26 21 17 14 13 14 18 19 18 19 16 12 13 12 11 10 12 14 14 12 11 10 11 11 11 12 13 16 20 21 21 19 17 17 18 17 18
28 29 32 34 36 36 36 35 35 35 36 35 35 33 31 29 27 24 20 16 14 15 16 17 19 18 16 15 14 12 12 12 13 13 13 12 10 10 11 12 13 14 17 20 22 21 19 18 18 18 18 18
27 28 31 33 34 35 36 35 35 34 35 35 35 35 34 32 29 27 26 22 19 16 14 14 16 18 18 17 16 14 13 13 14 14 15 14 12 11 11 12 13 15 18 20 21 21 21 20 20 19 19 18
27 28 31 32 32 34 36 35 35 34 34 34 34 34 34 34 32 30 28 27 25 20 15 14 14 14 16 16 17 17 15 15 15 16 16 16 15 14 13 13 15 16 18 20 20 21 21 21 21 21 20 19
27 28 29 29 30 32 34 35 35 35 34 33 33 32 32 33 34 32 30 29 27 24 18 15 14 12 12 14 17 19 20 19 18 18 19 18 18 17 16 16 16 17 19 20 21 20 20 21 21 21 21 20
29 27 27 28 30 30 32 33 33 34 34 34 33 31 30 31 32 32 31 30 28 27 23 19 17 14 11 11 15 19 22 22 21 21 21 21 21 20 20 19 17 16 18 21 22 21 20 20 20 20 21 21
31 28 26 28 29 30 31 30 31 32 33 34 33 31 29 29 29 29 30 31 30 29 26 23 21 17 13 10 11 16 20 23 25 23 22 23 24 23 22 20 18 17 18 21 22 21 20 20 19 19 19 20
31 29 27 27 27 29 30 29 29 30 31 32 32 32 30 29 28 27 28 29 30 30 29 26 24 22 18 13 11 12 16 20 24 25 25 25 25 24 22 20 19 17 18 20 22 22 21 20 20 19 19 19
31 30 29 28 28 30 30 29 29 28 29 31 32 32 31 30 28 27 26 26 28 29 30 29 27 26 23 18 15 12 11 15 19 23 25 26 25 23 22 21 20 19 18 20 22 22 22 21 21 20 20 20
30 28 28 28 29 30 31 30 29 28 29 29 30 30 31 30 29 27 25 24 25 26 28 29 29 27 26 23 19 15 11 11 13 17 21 24 25 24 23 22 21 20 19 21 23 22 22 21 21 21 20 21
28 27 27 28 29 29 29 29 29 29 28 28 28 29 30 30 29 28 26 24 23 23 23 25 27 28 27 24 21 18 14 9 9 12 15 18 20 21 23 23 23 21 20 22 23 23 21 21 20 20 20 20
26 25 24 25 28 29 28 27 28 29 28 28 29 28 29 29 29 29 27 25 23 22 21 20 22 24 25 25 22 20 17 13 11 10 11 13 14 15 18 20 22 23 22 23 24 23 21 21 20 19 19 19
24 20 19 20 22 25 26 25 25 26 27 27 28 28 28 29 28 28 27 26 25 22 20 19 18 19 21 23 23 21 19 17 15 12 11 11 11 12 13 13 15 18 20 23 25 24 23 21 20 20 20 20
20 18 17 17 17 19 21 23 24 25 25 25 27 28 28 28 28 28 27 27 26 24 22 20 19 18 18 19 21 22 22 21 20 17 14 12 11 11 12 11 11 12 14 17 21 22 22 22 21 22 22 22
19 18 18 18 18 17 17 19 21 22 23 24 25 26 27 27 27 27 28 27 26 26 25 23 21 20 19 18 19 21 23 23 21 20 17 14 13 11 12 11 10 10 11 11 14 17 20 21 20 21 22 23
17 18 18 18 18 17 16 17 18 18 21 23 24 25 26 26 26 27 27 27 27 27 26 25 23 21 20 20 19 19 19 19 18 18 18 16 13 12 11 11 9 7 8 8 9 11 14 18 19 19 20 21
13 14 15 15 15 15 14 14 15 17 19 22 22 23 25 25 25 25 26 26 26 26 26 26 25 23 22 21 20 19 18 17 17 17 17 17 16 14 12 11 10 7 6 4 4 7 8 11 15 17 19 21
13 13 15 15 14 15 13 12 14 15 16 19 21 21 22 23 23 24 24 24 24 24 25 25 25 24 22 21 20 20 20 19 19 19 18 17 17 16 14 12 10 8 5 5 4 5 5 4 5 9 13 18
14 14 15 15 14 13 12 11 10 11 12 15 18 19 20 22 22 22 22 23 23 23 23 23 23 23 23 22 21 20 21 21 21 21 19 18 18 17 15 12 9 9 6 6 5 3 2 2 2 4 4 7
14 13 12 12 13 12 12 11 10 11 12 13 14 16 18 21 21 21 21 21 21 21 21 21 21 21 22 22 21 21 20 20 20 20 19 18 17 16 15 12 8 8 9 6 6 6 3 2 2 2 4 3
14 12 11 12 13 13 13 13 12 12 12 12 12 13 15 17 19 20 20 19 19 19 19 20 20 20 20 20 21 20 20 19 18 18 18 18 17 16 15 13 10 9 10 8 5 7 9 8 5 3 6 5
13 11 11 12 12 13 13 13 13 11 11 11 10 11 12 13 15 18 19 18 18 18 18 18 19 19 19 19 19 19 20 19 18 17 16 16 16 16 16 15 11 11 12 9 7 8 9 12 11 8 5 3
Wind_Direction
2 1 358 357 360 1 1 358 351 351 358 360 351 339 333 313 262 232 209 184 159 138 140 137 115 59 39 3 294 235 205 182 193 186 175 165 162 172 178 187 196 202 196 179 181 187 178 169 166 162 161 164
4 2 0 357 359 2 3 3 360 356 1 11 9 4 15 53 95 102 110 114 114 116 97 228 221 335 349 355 296 250 240 212 201 193 182 171 163 171 184 194 199 200 196 184 187 189 182 175 169 164 161 167
6 4 3 360 359 2 5 6 6 1 358 12 27 34 43 54 60 65 78 83 72 77 28 297 279 318 333 337 293 260 258 228 200 187 179 171 173 175 174 177 186 190 183 178 179 180 183 179 170 169 170 176
10 6 5 4 2 2 6 8 9 7 360 4 17 31 43 45 38 43 67 70 21 338 326 315 301 324 328 311 278 264 250 221 199 187 180 175 179 177 170 170 181 188 184 186 186 188 194 188 179 181 179 181
14 10 10 9 5 4 5 6 9 9 5 2 2 7 19 31 15 347 225 240 256 263 265 294 278 285 309 300 268 252 238 215 198 192 184 180 183 178 175 177 188 200 195 193 195 199 202 198 198 198 188 185
18 16 15 14 10 9 8 6 7 8 7 4 1 1 2 3 337 276 242 236 245 255 253 267 261 252 265 262 244 238 234 215 192 185 180 179 182 179 182 193 204 210 202 195 196 201 204 206 207 203 194 193
23 22 20 19 17 15 13 10 8 8 9 6 3 1 357 353 335 295 260 244 249 258 257 264 266 257 253 244 237 232 222 206 184 178 179 183 189 198 215 235 227 213 201 195 195 199 201 203 204 201 200 203
26 26 24 24 22 20 19 17 13 10 10 8 5 2 359 352 340 318 286 260 255 268 274 269 268 266 259 249 239 230 210 196 191 189 191 197 203 214 227 229 225 216 202 196 195 197 199 201 207 207 207 206
27 27 27 27 27 25 24 22 20 17 13 11 8 5 4 359 349 339 319 290 274 280 287 276 264 260 257 254 239 227 214 198 200 205 206 208 208 212 218 212 214 218 208 201 200 201 204 207 211 213 214 214
24 26 27 28 29 28 27 25 24 23 20 16 12 8 6 4 360 351 340 324 305 297 296 283 264 251 248 253 244 237 228 210 209 213 215 216 212 209 209 208 210 217 216 210 207 207 210 213 213 212 217 221
23 23 26 29 30 30 29 27 25 25 25 22 19 15 10 8 6 1 353 342 330 318 306 286 261 242 238 246 243 239 231 221 220 222 225 222 214 208 208 212 212 216 218 215 212 211 212 214 216 214 215 217
22 21 25 28 29 30 31 30 28 26 26 26 24 21 18 12 9 6 2 355 344 334 324 303 270 237 228 237 239 235 231 229 228 228 230 226 217 211 209 212 214 218 219 216 213 212 212 212 214 215 213 211
23 22 24 25 26 28 31 31 30 28 26 26 26 25 23 19 15 10 6 3 356 346 339 329 300 255 230 235 243 242 240 242 242 239 233 227 220 214 211 211 215 220 220 218 215 212 211 210 211 213 213 210
25 22 21 21 22 25 28 29 29 30 28 27 26 24 24 24 21 17 12 8 4 357 348 344 332 301 260 248 253 255 255 253 252 249 239 230 223 217 214 213 216 219 220 220 218 216 214 211 210 210 210 210
29 25 20 20 21 22 24 25 26 27 28 28 27 24 23 24 24 22 19 14 11 6 357 352 353 341 310 275 263 260 262 261 257 251 244 237 229 222 217 215 216 218 221 221 219 219 218 216 214 210 209 209
29 26 22 22 21 22 23 23 23 25 26 27 27 25 24 24 23 23 22 19 16 14 8 360 356 357 347 320 285 261 256 259 258 252 245 239 231 224 219 217 218 219 223 224 222 222 221 221 220 216 213 211
29 26 24 23 21 23 24 22 22 22 23 25 25 25 25 24 22 21 22 23 20 17 15 9 1 359 356 343 320 283 256 251 251 249 245 236 225 220 218 219 223 223 224 225 225 224 223 224 223 222 220 218
29 27 26 24 22 24 25 23 22 20 20 21 23 23 24 25 23 20 21 23 23 19 16 15 11 4 359 353 343 321 280 257 245 241 240 232 223 218 216 219 223 223 227 229 226 224 223 222 223 223 222 222
27 27 25 24 23 23 23 23 22 20 20 19 19 21 22 23 24 21 19 20 22 23 19 16 15 11 5 358 352 344 320 285 260 241 232 227 224 222 218 218 222 222 228 230 225 223 222 221 221 221 222 223
24 25 24 24 23 23 22 21 21 21 21 19 18 19 20 22 23 21 20 20 20 23 23 19 15 13 10 6 359 353 345 327 299 266 242 230 225 225 221 218 219 221 225 226 223 222 222 221 221 221 222 223
21 22 23 23 23 23 22 20 20 19 19 20 19 19 19 20 21 21 20 21 21 22 24 25 20 14 10 9 8 1 356 354 344 316 281 256 240 234 230 222 219 219 219 219 220 220 222 224 224 225 226 226
15 16 16 18 20 22 22 19 19 18 19 19 18 19 19 19 20 20 20 20 22 23 23 26 27 23 16 12 11 8 4 3 2 352 329 301 274 255 246 235 225 222 219 216 216 218 222 226 229 231 232 232
12 10 10 11 11 15 18 17 17 17 18 18 18 18 19 19 19 20 19 19 21 23 22 22 24 28 27 21 15 11 9 8 6 2 352 333 313 287 267 255 242 237 231 223 218 217 221 227 232 235 237 238
8 7 7 7 7 8 8 11 13 13 14 16 17 18 18 19 19 20 20 19 20 22 22 21 21 23 28 30 26 20 18 15 12 8 1 349 335 319 298 280 264 251 246 243 234 225 222 223 230 235 237 239
4 5 4 2 4 4 2 3 6 8 10 12 14 16 18 18 18 20 21 20 21 22 22 22 21 21 23 29 33 33 31 26 22 15 7 0 351 340 326 309 298 276 256 257 259 252 240 229 229 234 236 238
1 2 2 360 358 357 357 359 1 3 6 8 8 10 14 16 16 18 20 21 22 23 23 23 23 23 23 25 29 33 35 34 31 25 18 13 5 355 345 330 321 310 264 245 296 296 274 246 234 235 240 242
353 353 354 353 351 351 351 352 358 2 1 3 4 5 8 12 14 15 17 19 21 24 25 24 25 25 25 25 25 27 29 32 33 31 29 26 19 6 356 349 340 333 281 243 308 319 277 264 246 236 239 243
344 343 345 343 341 343 345 345 352 358 356 357 0 1 2 5 10 13 13 15 17 21 24 26 27 27 28 27 26 26 27 29 31 31 30 29 27 18 5 356 349 352 327 266 272 299 278 312 280 241 238 242
336 335 334 333 333 334 337 337 339 347 350 351 354 356 357 360 3 7 10 12 13 15 20 23 26 28 30 30 30 29 28 29 28 28 30 29 27 22 11 355 346 359 357 320 270 253 261 328 271 268 340 332
330 326 325 329 332 330 330 331 333 339 342 343 344 345 350 354 357 0 4 7 8 10 13 17 20 24 29 31 32 32 32 32 29 26 27 29 27 22 15 3 357 2 5 1 323 276 263 266 264 306 342 330
330 320 317 321 322 321 320 320 323 326 327 329 331 333 339 344 349 354 357 359 2 4 7 11 13 17 23 28 31 32 33 33 34 32 28 27 27 25 21 16 9 1 4 14 8 336 294 277 272 273 299 310